ESBJERG current weather conditions

sailwx.info

Wind from 250 at 7 knots

Air temperature 6.0° C
Visibility: greater than 5.4 NM
Dewpoint 6.0° C

Last reported at 2020-Jan-24 22:50 UTC.
Time now 2020-Jan-24 23:36 UTC

Location: N 55°31' E 008°33'.
View on Google Maps.

See reports from other nearby stations

  
Tides and Currents Weather Stations Pressure Air Temp Water Temp Dewpoint Dewpoint Depression Visibility Wind Speed Wind Dir Waves Ship Positions
date/time (UTC)wind fromknots sea level pressurealtimeterstation pressurevisibilityair tempwater tempwave heightnotes
2020-Jan-24 22:50 250 7 5.4 6.0
2020-Jan-24 22:20 250 8 5.4 7.0
2020-Jan-24 21:50 250 8 3.2 7.0 Light rain showers.
2020-Jan-24 21:20 240 9 1.3 7.0 Light drizzle. Mist.
2020-Jan-24 20:50 240 8 1.1 7.0 Mist.
2020-Jan-24 20:20 240 9 1.0 6.0 Mist.
2020-Jan-24 19:50 230 9 1.5 6.0 Light rain showers. Mist.
2020-Jan-24 19:20 230 9 1.3 6.0 Mist.
2020-Jan-24 18:50 230 9 1.8 6.0 Mist.
2020-Jan-24 18:20 230 7 1.8 6.0 Mist.
2020-Jan-24 17:50 240 8 2.5 6.0 Mist.
2020-Jan-24 17:20 240 8 5.4 6.0
2020-Jan-24 16:50 240 8 5.4 6.0
2020-Jan-24 16:20 240 9 4.3 6.0
2020-Jan-24 15:50 250 8 3.2 6.0
2020-Jan-24 15:20 250 9 3.2 7.0
2020-Jan-24 14:50 250 9 3.8 7.0
2020-Jan-24 14:20 250 9 2.5 7.0 Mist.
2020-Jan-24 13:50 260 9 2.4 7.0 Light rain showers. Mist.
2020-Jan-24 13:20 250 12 1.6 7.0 Mist.
2020-Jan-24 12:50 250 13 2.3 7.0 Mist.
2020-Jan-24 12:20 250 13 3.2 7.0
2020-Jan-24 11:50 250 13 2.6 7.0 Mist.
2020-Jan-24 11:20 250 12 2.7 7.0
2020-Jan-24 10:50 240 12 5.4 7.0
2020-Jan-24 10:20 240 11 5.4 7.0
2020-Jan-24 09:50 240 9 5.4 7.0
2020-Jan-24 09:20 240 6 5.4 6.0
2020-Jan-24 08:50 250 8 5.4 6.0
2020-Jan-24 08:20 240 8 2.1 6.0 Drizzle. Mist.
2020-Jan-24 07:50 240 7 2.7 6.0
2020-Jan-24 07:20 240 8 2.2 6.0 Mist.
2020-Jan-24 06:50 250 8 5.4 6.0
2020-Jan-24 06:20 240 8 5.4 6.0
2020-Jan-24 05:50 240 8 5.4 6.0
2020-Jan-24 05:20 240 9 5.4 6.0
2020-Jan-24 04:50 240 8 4.9 6.0
2020-Jan-24 04:20 250 8 2.7 6.0
2020-Jan-24 03:50 240 9 3.8 6.0
2020-Jan-24 03:20 230 11 2.7 6.0
2020-Jan-24 02:50 240 11 2.3 6.0 Mist.
2020-Jan-24 02:20 240 9 1.7 7.0 Light rain showers. Mist.
2020-Jan-24 01:50 240 11 2.2 7.0 Light rain showers. Mist.
2020-Jan-24 01:20 230 11 2.7 7.0
2020-Jan-24 00:50 240 12 3.8 7.0
2020-Jan-24 00:20 240 9 1.7 7.0 Mist.
2020-Jan-23 23:50 250 9 3.8 7.0
2020-Jan-23 23:20 250 11 4.9 7.0
2020-Jan-23 22:50 250 12 2.7 7.0
2020-Jan-23 22:20 250 7 0.5 7.0 Fog.
2020-Jan-23 21:50 240 11 1.1 7.0 Mist.
2020-Jan-23 21:20 240 9 2.2 7.0 Mist.
2020-Jan-23 20:50 240 11 2.1 7.0 Mist.
2020-Jan-23 20:20 240 12 1.6 7.0 Mist.
2020-Jan-23 19:50 230 11 2.7 7.0
2020-Jan-23 19:20 240 13 1.9 7.0 Mist.
2020-Jan-23 18:50 230 12 1.6 7.0 Light drizzle. Mist.
2020-Jan-23 18:20 230 11 1.1 7.0 Mist.
2020-Jan-23 17:50 230 11 0.7 7.0 Mist.
2020-Jan-23 17:20 230 12 0.2 7.0 Fog.
2020-Jan-23 16:50 230 11 0.1 7.0 Fog.
2020-Jan-23 16:20 230 8 0.2 7.0 Fog.
2020-Jan-23 15:50 230 7 0.4 7.0 Fog.
2020-Jan-23 15:20 240 8 1.1 7.0 Mist.
2020-Jan-23 14:50 240 9 0.9 7.0 Mist.
2020-Jan-23 14:20 240 8 0.9 7.0 Mist.
2020-Jan-23 13:50 230 8 0.6 7.0 Mist.
2020-Jan-23 13:20 240 9 0.8 7.0 Mist.
2020-Jan-23 12:50 240 9 0.6 7.0 Mist.
2020-Jan-23 12:20 230 11 0.5 6.0 Mist.
2020-Jan-23 11:50 230 11 0.4 6.0 Fog.
2020-Jan-23 11:20 240 11 0.8 7.0 Mist. Light drizzle.
2020-Jan-23 10:50 230 8 0.6 7.0 Mist. Light drizzle.
2020-Jan-23 10:20 230 9 0.6 7.0 Mist. Light drizzle.
2020-Jan-23 09:50 230 9 0.6 6.0 Mist. Light drizzle.
2020-Jan-23 09:20 240 8 0.4 6.0 Fog. Light drizzle.
2020-Jan-23 08:50 230 8 0.8 6.0 Mist. Light drizzle.
2020-Jan-23 08:20 220 7 0.8 6.0 Mist. Light drizzle.
2020-Jan-23 07:50 230 6 1.1 6.0 Mist.
2020-Jan-23 07:20 230 6 1.0 6.0 Mist.
2020-Jan-23 06:50 240 6 0.9 6.0 Mist.
2020-Jan-23 06:20 230 6 5.4 6.0
2020-Jan-23 05:50 250 6 5.4 5.0
2020-Jan-23 05:20 250 8 5.4 6.0
2020-Jan-23 04:50 240 6 5.4 6.0
2020-Jan-23 04:20 250 6 5.4 6.0
2020-Jan-23 03:50 250 6 5.4 5.0
2020-Jan-23 03:20 260 6 5.4 5.0
2020-Jan-23 02:50 280 6 5.4 5.0
2020-Jan-23 02:20 250 5 5.4 3.0
2020-Jan-23 01:50 250 6 5.4 3.0
2020-Jan-23 01:20 240 4 1.7 2.0 Mist.
2020-Jan-23 00:50 250 6 0.5 2.0 Fog.
2020-Jan-23 00:20 240 4 1.2 3.0 Mist.
2020-Jan-22 23:50 250 4 0.1 2.0 Fog.
2020-Jan-22 23:20 260 5 0.2 2.0 Fog.